sat.trackr.live / text

‹ back to catalog

STARLINK-11579 [DTC]

NORAD 63143 · 2025-043M

PAYLOAD ACTIVE UNKNOWN

§ Identity

Operator
Country
US
Launch date
2025-03-03
Launch site
AFETR
Launch vehicle
Mass (kg)
RCS (m²)

Purposes: comms

External: N2YO · Heavens-Above · Gunter

§ Orbital elements

Epoch: 2026-05-25T00:55:34.093056Z

Period
91.67 min
Inclination
42.9965°
Eccentricity
0.0000634
Mean motion
15.70918522 rev/d
Perigee alt
355.8 km
Apogee alt
356.7 km
Semi-major
6,734.4 km
B*
1.3013e-3
RAAN
150.1664°
Arg perigee
278.6523°
Mean anomaly
81.4273°
Rev number
7,136

§ Raw data

STARLINK-11579 [DTC]1 63143U 25043M   26145.03858904  .00170555  00000+0  13013-2 0  99982 63143  42.9965 150.1664 0000634 278.6523  81.4273 15.70918522 71365

JSON: /api/v1/satellites/63143 · /tle

For live sub-satellite position, see the globe view (requires WebGL).

§ Visibility from observer

Set your observer location to see the next 7 days of passes ≥ 10°. The values pass through the URL so the page stays shareable.

No JS? Fill the form by hand. The geolocation button needs JavaScript.